Regional Weather Roundup
Issued by NWS

Home | Current Version | Previous Version | Graphics & Text | Print | Product List | Glossary Off
Versions: 1 2 3 4 5 6 7 8 9 10 11 12 13 14 15 16 17 18 19 20 21 22 23 24 25 26 27 28 29 30 31 32 33 34 35 36 37 38 39 40 41 42 43 44 45 46 47 48 49 50

000
ASUS43 KLMK 220010
RWRKY
KENTUCKY REGIONAL WEATHER ROUNDUP
NATIONAL WEATHER SERVICE LOUISVILLE KY
800 PM EDT THU SEP 21 2017

NOTE "FAIR" INDICATES FEW OR NO CLOUDS BELOW 12,000 FEET
WITH NO SIGNIFICANT WEATHER AND/OR OBSTRUCTIONS TO VISIBILITY.

KYZ001>023-026-027-061>063-070>075-220100-
WESTERN AND SOUTH CENTRAL KENTUCKY

CITY           SKY/WX    TMP DP  RH WIND       PRES   REMARKS
PADUCAH        CLEAR     82  70  66 SE5       29.98S
HENDERSON      CLEAR     83  70  64 SE3       30.00R
OWENSBORO      CLEAR     84  69  60 SE6       30.01R
HOPKINSVILLE   CLEAR     81  68  65 CALM      30.00S
BOWLING GREEN  CLEAR     82  68  62 CALM      30.01S
GLASGOW        CLEAR     76  69  78 CALM      30.03R
$$

KYZ024-025-028>034-038-045-046-053-220100-
NORTH CENTRAL KENTUCKY

CITY           SKY/WX    TMP DP  RH WIND       PRES   REMARKS
LOUISVILLE/SDF PTCLDY    87  67  51 SE3       30.01S HX  90
LOUISVILLE/LOU CLEAR     83  70  64 CALM      30.02R
FORT KNOX      CLEAR     77  71  83 CALM      30.02R
$$

KYZ035>037-039>044-047>052-055>060-089>105-220100-
NORTHEAST KENTUCKY

CITY           SKY/WX    TMP DP  RH WIND       PRES   REMARKS
LEXINGTON      CLEAR     81  65  58 E5        30.05S
COVINGTON      CLOUDY    75  73  93 SE3       30.05R
FRANKFORT      CLEAR     77  70  79 CALM      30.03S
$$

KYZ054-064>069-076>088-106>120-220100-
SOUTHEAST KENTUCKY

CITY           SKY/WX    TMP DP  RH WIND       PRES   REMARKS
JACKSON        CLEAR     74  66  76 CALM      30.07S
LONDON         CLEAR     77  65  66 NE3       30.06S
SOMERSET       CLEAR     73  63  68 CALM      30.06S
MIDDLESBORO    CLEAR     72  67  82 CALM      30.07S
MONTICELLO     CLEAR     71  68  90 N13       30.07R
$$





USA.gov is the U.S. government's official web portal to all federal, state and local government web resources and services.